Location: Tenerife
(28.2947°N, 16.5650°W)
Time: 21:17:02
(UTC+00:00)

OTV 5 (USA 277) - Visible Passes

Search period start: 23 January 2018 00:00
Search period end: 02 February 2018 00:00
Orbit: 404 x 417 km, 43.0° (Epoch: 07 September)

Date Brightness Start Highest point End Pass type
(mag) Time Alt. Az. Time Alt. Az. Time Alt. Az.
23 Jan ? 19:46:37 10° W 19:49:19 22° NNW 19:50:57 16° NNE visible
25 Jan ? 19:43:31 10° NW 19:44:50 12° NNW 19:46:10 10° N visible
01 Feb ? 20:17:03 10° NNW 20:17:39 12° N 20:17:39 12° N visible
